Pinedale, WY

9:51 PM MDT on March 29, 2017 (GMT -0600)
Wenz

Weather History for KPNA - December, 2012

Change the Weather History Date:

Wednesday, December 12, 2012

  Actual Average (KBPI) Record (KBPI)
Temperature  
Mean Temperature 20 °F -  
Max Temperature 33 °F 25 °F 46 °F (2004)
Min Temperature 8 °F 1 °F -21 °F (2007)
Degree Days  
Heating Degree Days 44    
Moisture  
Dew Point 16 °F    
Average Humidity 85    
Maximum Humidity 100    
Minimum Humidity 55    
Precipitation  
Precipitation 0.00 in - - ()
Sea Level Pressure  
Sea Level Pressure 29.76 in    
Wind  
Wind Speed 5 mph (WSW)    
Max Wind Speed 18 mph    
Max Gust Speed 25 mph    
Visibility 10 miles    
Events      
Averages and records for this station are not official NWS values.
T = Trace of Precipitation, MM = Missing Value Source: NWS Daily Summary

Daily Weather History Graph

Daily Weather History Graph

Search for Another Location

Airport or City:

Trip Planner

Search our weather history database for the weather conditions in past years. The results will help you decide how hot, cold, wet, or windy it might be!

Date:

Astronomy

Dec. 12, 2012 Rise Set
Actual Time 7:41 AM MST 4:45 PM MST
Civil Twilight 7:08 AM MST 5:17 PM MST
Nautical Twilight 6:33 AM MST 5:53 PM MST
Astronomical Twilight 5:58 AM MST 6:27 PM MST
Moon 6:48 AM MST (12/12) 4:26 PM MST (12/12)
Length of Visible Light 10h 08m
Length of Day
9h 04m
Waning Crescent, 0% of the Moon is Illuminated
Dec 12
Waning Crescent
Dec 13
New
Dec 19
First Quarter
Dec 28
Full
Jan 4
Last Quarter

Hourly Weather History & Observations

Time (MST) Temp. Windchill Dew Point Humidity Pressure Visibility Wind Dir Wind Speed Gust Speed Precip Events Conditions
12:15 AM 17.6 °F 10.7 °F 17.6 °F 100% 29.77 in 10.0 mi SE 4.6 mph - N/A   Clear
12:35 AM 15.8 °F 10.2 °F 14.0 °F 93% 29.77 in 10.0 mi ESE 3.5 mph - N/A   Clear
12:55 AM 15.8 °F 8.6 °F 15.8 °F 100% 29.75 in 10.0 mi SE 4.6 mph - N/A   Clear
1:15 AM 14.0 °F 6.5 °F 14.0 °F 100% 29.74 in 10.0 mi East 4.6 mph - N/A   Scattered Clouds
1:35 AM 15.8 °F - 15.8 °F 100% 29.74 in 10.0 mi Calm Calm - N/A   Scattered Clouds
1:55 AM 15.8 °F - 14.0 °F 93% 29.74 in 10.0 mi Calm Calm - N/A   Mostly Cloudy
2:15 AM 15.8 °F - 15.8 °F 100% 29.73 in 10.0 mi Calm Calm - N/A   Overcast
2:35 AM 17.6 °F - 15.8 °F 93% 29.73 in 10.0 mi Calm Calm - N/A   Mostly Cloudy
2:55 AM 17.6 °F 12.3 °F 17.6 °F 100% 29.72 in 10.0 mi ESE 3.5 mph - N/A   Mostly Cloudy
3:15 AM 17.6 °F 10.7 °F 15.8 °F 93% 29.71 in 10.0 mi SE 4.6 mph - N/A   Overcast
3:35 AM 19.4 °F 12.8 °F 19.4 °F 100% 29.71 in 10.0 mi SSE 4.6 mph - N/A   Mostly Cloudy
3:55 AM 19.4 °F 12.8 °F 19.4 °F 100% 29.71 in 10.0 mi SE 4.6 mph - N/A   Overcast
4:15 AM 19.4 °F 11.5 °F 17.6 °F 93% 29.71 in 10.0 mi ENE 5.8 mph - N/A   Mostly Cloudy
4:35 AM 17.6 °F 9.3 °F 17.6 °F 100% 29.71 in 10.0 mi East 5.8 mph - N/A   Clear
4:55 AM 19.4 °F 11.5 °F 17.6 °F 93% 29.70 in 10.0 mi ESE 5.8 mph - N/A   Clear
5:15 AM 17.6 °F - 17.6 °F 100% 29.69 in 10.0 mi Calm Calm - N/A   Clear
5:35 AM 19.4 °F - 17.6 °F 93% 29.69 in 10.0 mi Calm Calm - N/A   Clear
5:55 AM 17.6 °F 10.7 °F 15.8 °F 93% 29.69 in 10.0 mi East 4.6 mph - N/A   Clear
6:15 AM 15.8 °F 7.2 °F 15.8 °F 100% 29.69 in 10.0 mi SE 5.8 mph - N/A   Clear
6:35 AM 17.6 °F - 17.6 °F 100% 29.70 in 10.0 mi Calm Calm - N/A   Clear
6:55 AM 17.6 °F - 15.8 °F 93% 29.69 in 10.0 mi Calm Calm - N/A   Clear
7:15 AM 10.4 °F - 8.6 °F 92% 29.69 in 10.0 mi Calm Calm - N/A   Scattered Clouds
7:35 AM 8.6 °F 2.0 °F 5.0 °F 85% 29.69 in 10.0 mi WNW 3.5 mph - N/A   Scattered Clouds
7:55 AM 10.4 °F 4.0 °F 8.6 °F 92% 29.70 in 10.0 mi West 3.5 mph - N/A   Mostly Cloudy
8:15 AM 10.4 °F - 8.6 °F 92% 29.69 in 10.0 mi Calm Calm - N/A   Scattered Clouds
8:35 AM 10.4 °F 2.2 °F 8.6 °F 92% 29.71 in 10.0 mi WNW 4.6 mph - N/A   Clear
8:55 AM 10.4 °F - 10.4 °F 100% 29.71 in 10.0 mi Calm Calm - N/A   Clear
9:15 AM 14.0 °F - 12.2 °F 93% 29.72 in 10.0 mi Calm Calm - N/A   Scattered Clouds
9:35 AM 19.4 °F - 15.8 °F 86% 29.72 in 10.0 mi Calm Calm - N/A   Scattered Clouds
9:55 AM 21.2 °F - 17.6 °F 86% 29.72 in 10.0 mi Calm Calm - N/A   Scattered Clouds
10:15 AM 23.0 °F - 17.6 °F 80% 29.73 in 10.0 mi Calm Calm - N/A   Clear
10:35 AM 26.6 °F - 19.4 °F 74% 29.74 in 10.0 mi Calm Calm - N/A   Clear
10:55 AM 30.2 °F 26.7 °F 19.4 °F 64% 29.74 in 10.0 mi East 3.5 mph - N/A   Clear
11:15 AM 30.2 °F - 19.4 °F 64% 29.73 in 10.0 mi Calm Calm - N/A   Scattered Clouds
11:35 AM 32.0 °F 23.0 °F 21.2 °F 64% 29.73 in 10.0 mi SSW 11.5 mph - N/A   Mostly Cloudy
11:55 AM 30.2 °F 21.9 °F 23.0 °F 75% 29.72 in 10.0 mi WSW 9.2 mph - N/A   Mostly Cloudy
12:15 PM 32.0 °F 21.6 °F 23.0 °F 69% 29.72 in 10.0 mi SW 15.0 mph 25.3 mph N/A   Scattered Clouds
12:35 PM 32.0 °F 21.6 °F 23.0 °F 69% 29.72 in 10.0 mi SW 15.0 mph 19.6 mph N/A   Scattered Clouds
12:55 PM 32.0 °F 21.2 °F 23.0 °F 69% 29.72 in 10.0 mi SW 16.1 mph 21.9 mph N/A   Scattered Clouds
1:15 PM 32.0 °F 21.6 °F 23.0 °F 69% 29.73 in 10.0 mi SW 15.0 mph - N/A   Clear
1:35 PM 33.8 °F 22.8 °F 21.2 °F 60% 29.73 in 10.0 mi SW 18.4 mph 24.2 mph N/A   Scattered Clouds
1:55 PM 33.8 °F 23.2 °F 21.2 °F 60% 29.74 in 10.0 mi SW 17.3 mph 23.0 mph N/A   Clear
2:15 PM 33.8 °F 23.2 °F 19.4 °F 56% 29.74 in 10.0 mi WSW 17.3 mph 24.2 mph N/A   Scattered Clouds
2:35 PM 33.8 °F 23.9 °F 21.2 °F 60% 29.74 in 10.0 mi WSW 15.0 mph 21.9 mph N/A   Scattered Clouds
2:55 PM 33.8 °F 23.5 °F 19.4 °F 56% 29.75 in 10.0 mi WSW 16.1 mph 19.6 mph N/A   Clear
3:15 PM 33.8 °F 23.5 °F 19.4 °F 56% 29.75 in 10.0 mi WSW 16.1 mph 23.0 mph N/A   Clear
3:35 PM 32.0 °F 23.0 °F 19.4 °F 60% 29.77 in 10.0 mi WSW 11.5 mph - N/A   Clear
3:55 PM 32.0 °F 22.5 °F 17.6 °F 55% 29.78 in 10.0 mi WSW 12.7 mph - N/A   Clear
4:15 PM 30.2 °F 21.9 °F 17.6 °F 60% 29.79 in 10.0 mi West 9.2 mph - N/A   Clear
4:35 PM 28.4 °F 21.2 °F 17.6 °F 64% 29.79 in 10.0 mi West 6.9 mph - N/A   Clear
4:55 PM 24.8 °F 19.1 °F 15.8 °F 69% 29.80 in 10.0 mi West 4.6 mph - N/A   Clear
5:15 PM 21.2 °F 10.9 °F 14.0 °F 74% 29.81 in 10.0 mi West 9.2 mph - N/A   Clear
5:55 PM 17.6 °F 9.3 °F 12.2 °F 79% 29.83 in 10.0 mi West 5.8 mph - N/A   Clear
6:15 PM 17.6 °F 9.3 °F 14.0 °F 86% 29.83 in 10.0 mi West 5.8 mph - N/A   Scattered Clouds
6:35 PM 17.6 °F 12.3 °F 14.0 °F 86% 29.84 in 10.0 mi West 3.5 mph - N/A   Clear
6:55 PM 17.6 °F 12.3 °F 15.8 °F 93% 29.84 in 10.0 mi WNW 3.5 mph - N/A   Clear
7:15 PM 15.8 °F - 14.0 °F 93% 29.85 in 10.0 mi Calm Calm - N/A   Clear
7:35 PM 15.8 °F - 12.2 °F 86% 29.85 in 10.0 mi Calm Calm - N/A   Clear
7:55 PM 14.0 °F 6.5 °F 12.2 °F 93% 29.85 in 10.0 mi WNW 4.6 mph - N/A   Clear
8:15 PM 10.4 °F 0.8 °F 10.4 °F 100% 29.85 in 10.0 mi West 5.8 mph - N/A   Clear
8:35 PM 14.0 °F - 12.2 °F 93% 29.85 in 10.0 mi Calm Calm - N/A   Mostly Cloudy
8:55 PM 12.2 °F 4.3 °F 10.4 °F 92% 29.86 in 10.0 mi SW 4.6 mph - N/A   Scattered Clouds
9:15 PM 12.2 °F 4.3 °F 10.4 °F 92% 29.87 in 10.0 mi West 4.6 mph - N/A   Clear
9:35 PM 10.4 °F 0.8 °F 10.4 °F 100% 29.87 in 10.0 mi WNW 5.8 mph - N/A   Clear
9:55 PM 12.2 °F 4.3 °F 10.4 °F 92% 29.87 in 10.0 mi NNW 4.6 mph - N/A   Clear
10:15 PM 10.4 °F - 10.4 °F 100% 29.87 in 10.0 mi Calm Calm - N/A   Clear
10:35 PM 12.2 °F 6.1 °F 10.4 °F 92% 29.88 in 10.0 mi WNW 3.5 mph - N/A   Clear
10:55 PM 10.4 °F 4.0 °F 10.4 °F 100% 29.88 in 10.0 mi West 3.5 mph - N/A   Clear
11:15 PM 12.2 °F 4.3 °F 10.4 °F 92% 29.89 in 10.0 mi NW 4.6 mph - N/A   Clear
11:35 PM 12.2 °F 6.1 °F 10.4 °F 92% 29.89 in 10.0 mi West 3.5 mph - N/A   Scattered Clouds
11:55 PM 12.2 °F - 12.2 °F 100% 29.89 in 10.0 mi Calm Calm - N/A   Mostly Cloudy